GFSNE_850_dewp_096.txt.gz
Dewpoint
6 4 4 4 4 4 6 8 6 6 5 5 6 4 4 4 4 3 3 -1 -1 1 -1 -4 -8 -12 -15 -15 -14 -13 -12 -12 -9 -7 -4 -3 -3 -3
7 7 6 5 6 7 8 7 8 5 5 6 5 4 4 5 4 3 -1 -1 1 -1 -4 -6 -8 -10 -10 -9 -9 -11 -9 -8 -6 -8 -8 -4 -4 -3
5 3 6 6 7 8 8 8 8 7 5 6 5 5 4 4 2 1 -1 -0 -2 -3 -4 -5 -5 -6 -7 -9 -11 -12 -13 -8 -8 -10 -8 -9 -4 -4
4 5 6 9 8 7 7 7 8 7 7 6 7 5 4 4 3 2 1 -2 -2 -1 -2 -3 -4 -7 -11 -12 -13 -14 -13 -11 -13 -13 -12 -10 -7 -5
7 8 7 9 7 7 8 7 7 6 7 6 6 5 4 4 3 1 -1 -1 -1 -1 -2 -3 -6 -11 -13 -15 -17 -18 -19 -21 -23 -21 -16 -11 -7 -6
8 8 8 9 6 8 7 7 7 7 7 6 6 4 4 2 2 0 -0 -0 -1 -2 -4 -6 -8 -15 -18 -22 -30 -35 -35 -34 -33 -32 -28 -20 -11 -7
9 8 8 7 7 7 6 6 5 5 4 4 3 2 2 2 0 -0 -1 -2 -3 -3 -4 -6 -13 -22 -32 -31 -23 -32 -32 -32 -30 -28 -26 -24 -22 -13
7 7 7 6 6 6 5 5 4 4 3 3 1 1 0 -0 -1 -1 -3 -4 -4 -6 -7 -7 -12 -16 -29 -26 -20 -20 -28 -27 -26 -25 -24 -23 -20 -14
7 6 5 5 4 4 4 3 2 2 2 1 0 -0 -1 -2 -3 -4 -5 -6 -7 -7 -8 -8 -8 -8 -12 -14 -15 -20 -22 -24 -22 -21 -20 -21 -16 -9
5 5 4 3 2 1 1 1 -0 -0 -1 -1 -2 -3 -4 -5 -6 -6 -7 -8 -8 -9 -8 -8 -8 -7 -7 -8 -8 -8 -10 -18 -19 -18 -17 -18 -11 -10
3 2 0 -0 -1 -2 -2 -3 -3 -3 -4 -4 -4 -4 -4 -5 -7 -9 -8 -8 -8 -7 -7 -7 -7 -7 -8 -8 -7 -7 -8 -12 -15 -14 -15 -16 -10 -8
-1 -2 -3 -3 -3 -3 -3 -3 -3 -4 -4 -4 -5 -6 -7 -8 -8 -9 -9 -9 -9 -9 -8 -8 -7 -7 -7 -8 -8 -8 -8 -8 -9 -11 -10 -12 -12 -8
-3 -4 -4 -4 -4 -4 -4 -5 -6 -6 -7 -8 -9 -9 -9 -10 -10 -10 -10 -11 -11 -10 -10 -10 -10 -9 -9 -9 -9 -9 -10 -9 -9 -9 -8 -9 -9 -8
-4 -5 -5 -6 -6 -7 -8 -9 -9 -9 -10 -10 -11 -11 -11 -11 -12 -12 -12 -12 -12 -12 -12 -12 -12 -12 -11 -11 -12 -12 -12 -12 -9 -8 -9 -7 -8 -7
-7 -7 -8 -9 -9 -9 -10 -11 -11 -11 -11 -12 -12 -12 -13 -13 -13 -13 -14 -14 -14 -14 -14 -14 -14 -13 -13 -13 -13 -13 -12 -11 -11 -8 -8 -7 -7 -8
-11 -11 -11 -11 -11 -11 -11 -12 -12 -13 -13 -13 -13 -14 -14 -14 -15 -15 -15 -14 -14 -14 -14 -14 -14 -14 -13 -13 -14 -14 -14 -13 -13 -8 -9 -8 -8 -8
-11 -11 -11 -11 -11 -12 -12 -12 -13 -13 -14 -14 -15 -15 -15 -15 -15 -15 -16 -16 -16 -15 -16 -16 -17 -16 -16 -15 -14 -14 -14 -14 -14 -12 -8 -8 -8 -8
-12 -13 -13 -13 -13 -14 -14 -14 -15 -15 -16 -16 -16 -16 -17 -17 -17 -17 -17 -17 -17 -17 -17 -17 -17 -17 -16 -16 -15 -15 -14 -13 -13 -12 -9 -8 -8 -8
-14 -15 -15 -15 -16 -16 -16 -16 -17 -17 -18 -18 -18 -18 -18 -18 -18 -18 -18 -18 -18 -18 -18 -18 -18 -17 -17 -17 -17 -15 -12 -12 -11 -10 -8 -9 -8 -8
-17 -17 -17 -17 -18 -18 -18 -19 -19 -19 -20 -20 -20 -20 -20 -20 -19 -19 -19 -19 -19 -19 -19 -19 -18 -18 -17 -16 -16 -16 -16 -15 -13 -11 -8 -9 -9 -9
-18 -18 -19 -19 -20 -20 -20 -20 -21 -21 -21 -21 -21 -21 -21 -21 -20 -20 -20 -20 -20 -19 -19 -19 -19 -18 -18 -17 -16 -15 -14 -13 -12 -11 -9 -9 -9 -9
-20 -20 -20 -21 -21 -21 -21 -21 -21 -22 -22 -22 -22 -22 -22 -21 -21 -21 -21 -20 -20 -19 -19 -19 -19 -18 -18 -18 -17 -16 -14 -13 -12 -11 -10 -9 -9 -10
-21 -21 -22 -22 -22 -22 -22 -22 -23 -23 -23 -23 -23 -22 -22 -22 -22 -21 -21 -21 -20 -20 -20 -19 -19 -18 -18 -18 -17 -16 -15 -14 -12 -10 -9 -10 -10 -11

GFSNE_850_dewp_099.txt.gz
Dewpoint
5 7 7 6 7 8 8 6 5 7 6 7 7 6 6 6 6 6 5 4 3 2 3 3 -1 -3 0 -2 -4 -5 -9 -13 -15 -14 -10 -8 -5 -2
7 7 7 8 7 7 7 6 8 7 7 6 6 7 6 6 5 5 6 5 4 4 4 3 -2 -2 0 -3 -5 -10 -14 -15 -14 -13 -13 -12 -10 -5
7 7 7 7 8 7 6 7 7 7 7 7 7 7 6 6 6 6 5 5 4 4 3 1 -3 0 -2 -5 -8 -11 -11 -11 -9 -10 -10 -11 -10 -7
7 8 8 8 7 5 6 8 8 8 7 6 7 7 6 6 6 6 5 4 3 3 1 -2 -1 -2 -5 -5 -6 -6 -8 -8 -9 -11 -12 -12 -8 -10
8 8 7 5 6 9 9 8 8 7 7 6 6 7 6 5 5 5 4 3 0 -0 0 -1 -1 -2 -3 -3 -3 -4 -7 -10 -12 -12 -13 -14 -13 -13
7 7 8 9 9 8 8 7 7 7 6 6 5 5 5 5 5 4 3 1 0 -0 -1 -1 -0 -1 -1 -1 -3 -6 -7 -14 -15 -20 -26 -27 -28 -26
9 9 9 8 8 7 7 6 6 5 5 5 5 4 4 4 3 3 1 0 -0 -1 -1 -1 -1 -1 -2 -2 -3 -6 -18 -27 -23 -11 -16 -32 -31 -29
8 8 7 7 6 6 6 5 5 4 4 3 3 3 2 1 1 1 -0 -1 -2 -2 -3 -3 -4 -4 -3 -4 -4 -5 -9 -13 -14 -20 -18 -22 -24 -22
7 7 6 5 4 4 3 3 2 2 2 1 0 -0 -1 -2 -2 -3 -3 -4 -4 -4 -4 -4 -4 -4 -4 -5 -12 -14 -13 -13 -14 -12 -13 -20 -21 -20
5 4 3 3 1 0 -0 -1 -1 -2 -2 -2 -3 -3 -3 -3 -4 -4 -4 -4 -4 -4 -5 -6 -6 -6 -7 -7 -7 -8 -8 -8 -9 -10 -11 -16 -18 -18
2 1 -0 -1 -2 -3 -3 -3 -3 -4 -3 -3 -3 -4 -4 -4 -5 -5 -6 -7 -7 -7 -7 -7 -7 -7 -7 -8 -7 -7 -7 -7 -7 -7 -9 -13 -16 -16
-1 -2 -3 -3 -4 -4 -4 -4 -4 -5 -6 -6 -6 -7 -7 -8 -8 -8 -9 -9 -9 -9 -8 -8 -8 -8 -8 -7 -8 -7 -6 -7 -7 -7 -8 -10 -12 -12
-4 -4 -4 -5 -5 -6 -7 -8 -8 -8 -8 -9 -9 -9 -10 -10 -10 -10 -10 -11 -11 -11 -11 -10 -11 -11 -10 -10 -10 -9 -8 -8 -8 -8 -7 -7 -8 -8
-5 -7 -8 -9 -10 -10 -10 -11 -12 -11 -10 -10 -10 -10 -10 -11 -11 -12 -12 -12 -13 -13 -13 -13 -13 -12 -12 -12 -11 -11 -11 -10 -9 -9 -9 -10 -8 -8
-10 -10 -11 -11 -11 -10 -12 -12 -11 -12 -12 -12 -11 -11 -12 -12 -13 -13 -13 -13 -13 -13 -13 -13 -14 -14 -14 -13 -13 -13 -12 -12 -11 -10 -11 -9 -8 -8
-10 -10 -11 -11 -11 -11 -11 -11 -12 -13 -13 -13 -13 -14 -14 -14 -14 -14 -14 -15 -15 -16 -15 -14 -13 -13 -13 -13 -13 -13 -13 -12 -12 -12 -12 -12 -11 -8
-11 -11 -12 -12 -12 -13 -13 -13 -13 -14 -14 -15 -15 -16 -16 -16 -16 -16 -16 -17 -17 -17 -16 -16 -15 -15 -14 -14 -14 -15 -15 -14 -14 -15 -15 -14 -12 -9
-13 -13 -13 -14 -14 -15 -15 -16 -16 -16 -16 -17 -17 -17 -17 -17 -18 -18 -18 -18 -18 -17 -16 -17 -16 -17 -17 -18 -16 -15 -15 -14 -13 -13 -13 -11 -11 -11
-15 -15 -15 -15 -16 -17 -17 -17 -17 -17 -18 -18 -18 -18 -18 -18 -19 -18 -19 -18 -18 -18 -18 -18 -18 -18 -16 -16 -17 -15 -14 -15 -15 -14 -12 -11 -11 -12
-17 -17 -16 -17 -17 -18 -18 -18 -19 -19 -19 -19 -19 -19 -20 -19 -19 -19 -19 -19 -19 -19 -19 -19 -18 -17 -17 -17 -18 -20 -20 -18 -17 -16 -15 -14 -12 -8
-17 -17 -18 -18 -19 -19 -19 -20 -20 -20 -20 -20 -20 -20 -20 -20 -20 -20 -20 -20 -20 -19 -19 -19 -19 -19 -19 -19 -17 -17 -17 -16 -15 -14 -13 -12 -12 -8
-19 -19 -19 -19 -20 -20 -20 -20 -20 -21 -21 -21 -21 -21 -21 -21 -21 -21 -20 -20 -19 -19 -19 -19 -19 -19 -18 -18 -18 -17 -17 -18 -16 -14 -14 -13 -12 -8
-20 -20 -21 -21 -21 -21 -21 -22 -22 -22 -22 -22 -22 -22 -22 -22 -21 -21 -21 -20 -20 -20 -20 -19 -19 -19 -19 -18 -18 -18 -17 -16 -15 -14 -12 -11 -10 -9

GFSNE_850_dewp_102.txt.gz
Dewpoint
4 4 5 5 6 6 7 7 7 8 7 6 6 6 6 6 7 7 7 6 6 7 6 6 5 4 2 0 -0 -1 -2 -2 -2 -2 -3 -0 1 -1
5 4 4 5 5 6 7 6 6 7 8 5 4 4 7 7 7 7 7 7 6 6 6 6 6 5 4 1 1 1 -1 -2 -2 -5 -6 -6 -5 -8
4 5 5 6 7 6 6 7 7 7 8 6 6 7 8 7 7 7 7 7 6 6 6 6 6 6 5 3 2 0 -2 -3 -5 -5 -9 -11 -11 -10
6 7 6 7 8 7 8 8 8 8 8 8 8 7 7 7 6 6 6 6 6 5 6 6 6 5 4 3 2 -0 -1 -1 -2 -4 -4 -5 -4 -7
8 8 8 8 8 9 9 9 8 7 8 8 7 6 6 6 6 5 5 5 5 5 5 4 4 2 2 2 1 -1 -0 -2 -3 -3 -2 -2 -6 -10
8 9 9 9 9 8 8 8 7 7 6 6 5 5 5 5 5 5 4 4 5 4 3 2 2 1 1 -0 -1 -0 -2 -2 -2 -2 -2 -3 -5 -8
9 9 9 9 9 8 8 7 6 6 5 4 4 4 3 3 2 2 2 2 2 2 1 1 0 0 -0 -1 -1 -1 -1 -1 -1 -2 -2 -4 -8 -13
8 9 8 7 6 7 6 5 4 3 3 3 2 1 1 0 -0 -1 -1 -1 -1 -1 -1 -1 -1 -2 -2 -1 -1 -2 -2 -2 -2 -2 -5 -9 -7 -7
8 7 5 5 4 3 3 1 1 -0 -0 -1 -1 -2 -3 -3 -3 -3 -3 -3 -4 -4 -4 -4 -4 -3 -3 -3 -3 -3 -3 -3 -4 -5 -6 -6 -7 -6
4 3 3 2 1 -0 -1 -3 -3 -4 -3 -4 -3 -4 -4 -4 -4 -5 -5 -5 -6 -6 -6 -6 -7 -7 -6 -6 -6 -6 -6 -6 -6 -6 -6 -6 -6 -7
1 1 -0 -1 -2 -3 -4 -4 -4 -4 -5 -6 -7 -7 -8 -8 -8 -8 -8 -8 -8 -9 -8 -8 -8 -8 -8 -7 -7 -6 -7 -6 -6 -6 -6 -6 -7 -7
-1 -3 -3 -3 -4 -6 -7 -8 -9 -9 -10 -10 -9 -9 -9 -9 -9 -9 -10 -10 -10 -10 -9 -9 -10 -10 -11 -11 -10 -7 -6 -6 -7 -7 -6 -6 -7 -7
-4 -6 -7 -9 -11 -11 -11 -12 -12 -11 -10 -10 -11 -11 -10 -10 -10 -11 -12 -12 -13 -12 -13 -13 -14 -14 -13 -13 -14 -14 -14 -13 -12 -10 -9 -9 -8 -7
-9 -10 -11 -11 -11 -11 -13 -12 -11 -12 -13 -15 -13 -12 -12 -13 -14 -14 -14 -14 -13 -13 -13 -14 -13 -13 -13 -14 -15 -17 -16 -15 -15 -14 -11 -10 -9 -8
-12 -12 -12 -12 -11 -11 -12 -12 -12 -13 -14 -14 -14 -14 -15 -16 -17 -17 -17 -17 -18 -18 -18 -18 -17 -15 -14 -13 -13 -13 -15 -15 -15 -13 -11 -11 -10 -9
-12 -13 -14 -15 -13 -14 -14 -14 -14 -15 -15 -16 -17 -18 -18 -18 -18 -19 -19 -19 -20 -20 -19 -20 -19 -17 -16 -16 -15 -15 -15 -14 -15 -17 -14 -12 -11 -10
-16 -16 -17 -19 -18 -17 -17 -17 -17 -17 -18 -19 -18 -19 -19 -20 -20 -20 -20 -20 -20 -19 -19 -19 -19 -21 -21 -21 -20 -20 -19 -20 -17 -13 -13 -13 -14 -13
-17 -18 -18 -18 -17 -17 -18 -18 -19 -19 -19 -19 -20 -20 -20 -20 -20 -20 -21 -20 -20 -20 -20 -21 -22 -22 -21 -22 -17 -16 -17 -17 -18 -18 -15 -14 -13 -11
-21 -18 -18 -18 -18 -18 -19 -20 -19 -20 -20 -20 -20 -20 -20 -20 -21 -21 -21 -21 -21 -21 -22 -22 -19 -18 -18 -18 -21 -22 -22 -23 -21 -17 -17 -15 -14 -14
-18 -18 -18 -19 -20 -19 -20 -20 -20 -20 -20 -20 -20 -21 -21 -21 -21 -21 -21 -21 -21 -21 -20 -19 -21 -20 -19 -19 -18 -20 -20 -17 -16 -16 -17 -18 -16 -16
-20 -19 -20 -20 -20 -19 -20 -20 -20 -20 -21 -21 -21 -22 -21 -21 -22 -22 -21 -21 -21 -21 -20 -21 -21 -20 -19 -19 -19 -19 -20 -20 -17 -16 -16 -15 -15 -17
-22 -21 -20 -20 -20 -20 -20 -21 -22 -22 -21 -21 -21 -22 -22 -22 -22 -21 -21 -21 -21 -21 -21 -21 -20 -21 -21 -19 -19 -19 -20 -19 -18 -17 -15 -14 -14 -14
-24 -23 -22 -21 -22 -22 -24 -24 -23 -22 -22 -22 -22 -22 -22 -22 -22 -22 -22 -22 -21 -21 -21 -21 -22 -21 -20 -20 -19 -18 -18 -17 -17 -17 -14 -13 -12 -11

GFSNE_850_dewp_108.txt.gz
Dewpoint
6 5 5 5 7 6 5 5 5 6 6 5 5 5 4 5 5 6 6 7 7 8 8 7 6 7 6 6 6 6 6 6 6 5 6 5 4 5
6 5 5 5 6 6 5 5 6 6 6 5 5 6 6 6 7 8 8 8 8 8 7 7 6 6 6 6 6 5 5 6 5 5 5 5 5 5
5 5 5 5 6 6 6 5 5 6 7 6 6 7 7 8 8 8 7 8 6 6 6 5 5 5 5 5 4 5 4 4 5 4 4 4 4 4
6 5 5 6 6 6 6 6 6 7 8 8 8 8 8 8 7 7 6 6 6 5 5 4 5 4 4 4 4 4 3 3 3 3 3 3 3 3
5 5 6 7 6 6 7 8 8 9 9 8 8 7 7 7 7 6 5 5 4 4 4 4 3 3 3 3 2 2 2 2 2 2 1 1 2 2
7 7 7 7 7 8 8 8 8 8 8 7 6 5 5 5 4 3 3 2 1 1 0 -0 -0 -0 -0 -0 -1 -0 -0 -1 -1 -1 -1 -1 -0 0
8 8 8 8 8 8 8 7 6 6 5 5 4 3 2 1 -0 -1 -2 -2 -3 -3 -4 -4 -4 -5 -5 -5 -5 -4 -4 -3 -3 -3 -3 -3 -3 -3
8 8 8 7 6 4 3 3 3 3 2 3 1 -0 -2 -3 -4 -5 -5 -6 -6 -7 -7 -7 -7 -7 -7 -7 -8 -8 -7 -6 -6 -6 -6 -6 -6 -5
8 8 5 3 2 2 2 1 1 0 1 -0 -2 -5 -6 -7 -8 -8 -9 -10 -10 -11 -12 -13 -15 -15 -14 -12 -11 -11 -8 -8 -8 -7 -7 -7 -6 -6
5 3 2 1 0 0 -0 -0 -1 -2 -6 -8 -9 -9 -10 -10 -10 -10 -11 -12 -14 -17 -19 -18 -16 -17 -21 -25 -27 -23 -19 -16 -13 -12 -12 -10 -9 -8
1 -1 -1 -1 -1 -1 -2 -4 -9 -10 -11 -13 -15 -16 -12 -10 -11 -12 -15 -17 -20 -23 -19 -15 -19 -20 -23 -21 -19 -18 -22 -28 -25 -22 -17 -13 -15 -12
-1 -2 -3 -3 -4 -5 -12 -16 -18 -19 -21 -21 -20 -18 -16 -15 -15 -17 -19 -21 -22 -21 -18 -20 -20 -20 -19 -20 -19 -21 -19 -19 -19 -19 -17 -13 -13 -12
-2 -4 -5 -7 -18 -26 -26 -23 -23 -20 -22 -23 -24 -25 -27 -29 -30 -30 -28 -25 -24 -23 -24 -20 -17 -17 -17 -17 -17 -19 -19 -22 -23 -23 -21 -18 -17 -14
-5 -8 -16 -31 -28 -21 -22 -23 -23 -26 -29 -31 -32 -32 -31 -31 -30 -29 -29 -28 -27 -24 -23 -19 -18 -19 -19 -21 -22 -23 -24 -22 -18 -16 -15 -17 -19 -21
-19 -24 -21 -14 -17 -23 -30 -31 -31 -33 -33 -32 -31 -30 -29 -28 -28 -28 -28 -27 -27 -26 -25 -24 -23 -23 -21 -20 -19 -20 -19 -19 -17 -19 -21 -22 -20 -20
-18 -14 -15 -22 -29 -30 -30 -32 -32 -31 -30 -29 -29 -28 -27 -27 -27 -26 -25 -25 -26 -26 -26 -25 -23 -21 -20 -19 -19 -20 -21 -19 -21 -21 -21 -21 -21 -22
-23 -27 -28 -29 -31 -31 -31 -30 -29 -29 -30 -29 -28 -28 -27 -26 -26 -25 -25 -24 -24 -24 -25 -24 -22 -20 -20 -20 -20 -21 -19 -20 -21 -20 -19 -19 -19 -19
-31 -32 -33 -32 -31 -30 -30 -30 -30 -29 -28 -27 -27 -26 -25 -25 -25 -24 -24 -24 -24 -23 -23 -23 -23 -22 -22 -20 -20 -20 -20 -20 -21 -19 -19 -18 -19 -20
-35 -34 -32 -30 -30 -30 -30 -30 -28 -27 -26 -26 -25 -25 -24 -24 -24 -24 -23 -23 -23 -23 -23 -23 -22 -21 -21 -21 -22 -20 -20 -20 -20 -19 -19 -19 -18 -20
-32 -30 -30 -30 -30 -30 -29 -28 -27 -26 -26 -25 -24 -24 -23 -23 -23 -23 -23 -22 -23 -23 -23 -23 -23 -22 -22 -22 -21 -22 -20 -20 -20 -19 -19 -19 -19 -19
-29 -29 -29 -29 -29 -28 -27 -27 -26 -25 -25 -24 -23 -23 -22 -22 -22 -22 -22 -22 -22 -23 -23 -23 -23 -22 -21 -21 -21 -20 -20 -19 -19 -19 -18 -18 -18 -17
-30 -30 -30 -29 -28 -27 -26 -25 -25 -24 -24 -23 -22 -22 -21 -21 -21 -21 -21 -21 -22 -23 -23 -23 -23 -22 -22 -21 -20 -20 -19 -18 -16 -16 -16 -16 -17 -17
-31 -30 -29 -27 -26 -26 -25 -25 -24 -24 -23 -22 -22 -21 -21 -21 -21 -21 -21 -21 -21 -22 -22 -22 -23 -22 -21 -20 -20 -20 -18 -17 -16 -14 -12 -13 -13 -12

GFSNE_850_dewp_111.txt.gz
Dewpoint
9 7 6 6 6 6 7 7 6 6 5 5 5 5 5 5 5 7 7 7 8 8 8 7 7 7 7 7 6 6 5 6 6 6 6 5 6 6
8 8 7 6 6 6 6 7 7 7 7 6 5 5 7 7 7 7 7 7 8 7 7 7 7 7 7 6 6 6 5 5 5 5 5 5 5 5
8 7 7 7 6 6 7 7 7 7 7 6 5 7 8 8 8 7 8 8 7 7 7 6 6 6 6 5 4 4 4 4 4 3 4 4 4 4
7 7 7 7 6 6 6 6 6 6 7 7 8 8 8 8 8 8 7 7 6 6 6 5 4 4 4 3 3 3 3 3 3 2 2 2 2 3
8 7 7 6 6 6 6 7 7 7 7 8 8 7 7 7 7 6 6 5 4 3 3 2 1 1 1 1 -0 -1 -1 -0 0 0 0 0 -0 0
8 7 7 6 6 6 7 7 7 7 8 7 6 5 5 4 4 4 3 1 -0 -1 -2 -3 -4 -4 -4 -5 -5 -5 -5 -5 -5 -4 -4 -3 -3 -2
7 7 8 7 7 8 8 7 7 5 5 4 3 3 2 2 1 -2 -2 -4 -5 -6 -7 -8 -10 -11 -12 -12 -12 -11 -10 -9 -8 -8 -7 -6 -6 -6
6 6 7 7 7 7 6 5 3 3 3 2 1 0 -1 -2 -5 -7 -9 -12 -16 -20 -23 -25 -25 -28 -30 -31 -28 -25 -21 -18 -15 -13 -11 -9 -8 -8
8 7 6 5 5 4 2 2 1 1 1 -0 -0 -3 -6 -9 -13 -19 -21 -19 -18 -20 -24 -32 -35 -33 -33 -36 -37 -37 -35 -29 -25 -22 -21 -19 -16 -13
7 6 5 3 1 0 0 -0 -1 -1 -2 -5 -12 -16 -19 -21 -21 -22 -21 -20 -28 -34 -36 -28 -29 -31 -34 -34 -32 -32 -30 -26 -29 -27 -26 -30 -16 -14
4 2 1 0 -1 -1 -1 -2 -3 -11 -18 -23 -27 -28 -27 -25 -27 -30 -34 -36 -36 -35 -30 -27 -29 -31 -31 -27 -26 -25 -28 -29 -29 -29 -29 -25 -16 -15
-1 -2 -2 -1 -2 -2 -5 -19 -25 -27 -26 -25 -25 -29 -34 -34 -35 -34 -33 -33 -31 -30 -30 -28 -28 -25 -20 -20 -23 -29 -29 -29 -28 -28 -28 -18 -15 -15
-3 -4 -4 -4 -9 -22 -28 -30 -36 -35 -32 -34 -36 -36 -35 -34 -34 -33 -32 -31 -30 -28 -27 -22 -20 -21 -21 -21 -24 -27 -27 -27 -26 -26 -25 -22 -21 -17
-4 -6 -9 -25 -33 -34 -38 -38 -36 -36 -36 -36 -35 -34 -33 -33 -33 -31 -30 -30 -28 -27 -26 -25 -24 -24 -23 -23 -22 -25 -26 -25 -22 -23 -18 -21 -24 -25
-7 -14 -25 -28 -30 -36 -37 -37 -36 -35 -34 -33 -33 -33 -32 -31 -30 -30 -29 -29 -28 -28 -27 -26 -25 -25 -23 -21 -21 -24 -23 -24 -23 -19 -21 -21 -20 -21
-22 -29 -31 -34 -35 -36 -35 -35 -33 -32 -33 -33 -32 -30 -29 -29 -28 -28 -28 -27 -27 -27 -27 -25 -25 -24 -23 -23 -21 -24 -24 -20 -22 -21 -20 -21 -20 -19
-28 -27 -30 -32 -34 -33 -32 -31 -32 -32 -32 -31 -30 -29 -28 -28 -27 -27 -26 -25 -25 -24 -25 -25 -25 -24 -24 -22 -23 -23 -23 -21 -21 -20 -19 -20 -20 -19
-31 -31 -32 -32 -31 -31 -31 -31 -31 -31 -30 -29 -28 -27 -27 -26 -25 -25 -24 -24 -24 -24 -24 -24 -24 -24 -24 -23 -22 -21 -21 -20 -20 -20 -20 -20 -20 -20
-32 -33 -32 -31 -31 -31 -31 -31 -30 -29 -28 -27 -26 -26 -25 -24 -23 -23 -23 -23 -23 -23 -23 -23 -23 -22 -22 -22 -21 -20 -20 -20 -20 -20 -20 -20 -20 -19
-32 -31 -30 -31 -31 -30 -30 -30 -28 -27 -26 -26 -25 -24 -23 -23 -22 -22 -21 -21 -22 -22 -22 -23 -23 -22 -22 -21 -21 -20 -19 -20 -20 -20 -19 -19 -18 -17
-31 -31 -31 -30 -30 -29 -29 -28 -27 -26 -26 -24 -23 -23 -22 -22 -21 -21 -21 -21 -21 -21 -22 -23 -23 -23 -21 -19 -19 -18 -16 -16 -18 -19 -17 -17 -17 -17
-31 -31 -30 -29 -29 -28 -28 -27 -26 -25 -24 -23 -22 -22 -21 -21 -20 -20 -20 -20 -21 -21 -22 -23 -24 -21 -19 -18 -19 -18 -15 -13 -12 -13 -13 -13 -14 -15
-31 -30 -29 -28 -28 -27 -26 -26 -26 -25 -24 -23 -22 -21 -21 -20 -20 -20 -20 -20 -21 -21 -22 -24 -23 -19 -18 -18 -18 -17 -14 -12 -12 -12 -12 -12 -12 -12

GFSNE_850_dewp_114.txt.gz
Dewpoint
7 8 7 7 5 4 5 5 6 6 6 6 6 6 6 7 7 8 8 7 7 7 7 7 7 8 6 7 7 7 7 6 6 6 5 5 5 5
6 8 9 7 6 5 6 6 7 7 7 5 6 6 7 7 7 8 8 8 8 7 7 7 7 7 7 6 6 6 6 5 5 5 4 4 4 4
7 7 8 8 8 7 6 6 7 7 7 7 6 7 7 7 8 8 8 8 7 7 7 7 7 6 6 5 5 4 4 4 3 3 3 3 3 3
8 8 8 8 7 7 7 7 7 7 7 6 7 7 7 7 7 7 7 6 6 5 6 5 5 5 3 3 2 1 -0 -1 -1 -1 -1 -1 -1 -1
9 8 8 8 7 7 7 7 6 7 7 7 7 7 7 7 5 5 5 5 4 3 3 1 -1 -1 -3 -4 -5 -6 -7 -8 -8 -7 -7 -6 -6 -6
8 8 8 7 8 7 7 6 7 7 7 7 7 6 5 5 5 4 3 2 0 -1 -2 -4 -9 -13 -18 -24 -30 -32 -34 -32 -33 -32 -30 -29 -23 -19
8 7 8 8 7 7 7 7 7 7 7 6 5 4 3 2 1 2 -0 -3 -7 -14 -21 -30 -35 -38 -40 -40 -39 -39 -39 -39 -39 -38 -37 -36 -35 -36
7 7 7 7 7 7 7 7 6 6 5 4 3 2 0 -0 -2 -8 -17 -29 -34 -34 -38 -40 -40 -38 -38 -39 -38 -38 -38 -37 -35 -32 -31 -32 -34 -35
7 7 6 6 6 6 5 5 3 3 2 1 0 -1 -3 -7 -20 -29 -35 -37 -37 -37 -38 -38 -36 -38 -38 -38 -38 -38 -36 -33 -33 -33 -33 -31 -31 -31
7 6 6 5 3 2 2 1 1 -0 -1 -3 -10 -21 -31 -32 -35 -38 -38 -37 -37 -37 -36 -33 -35 -34 -35 -35 -35 -34 -33 -33 -33 -33 -33 -32 -29 -22
5 3 2 1 -1 -1 -1 -1 -2 -5 -14 -28 -35 -36 -37 -37 -37 -36 -37 -37 -38 -37 -34 -32 -31 -31 -31 -30 -29 -31 -31 -31 -30 -30 -30 -29 -28 -16
2 -0 -1 -1 -2 -3 -3 -8 -14 -21 -29 -32 -36 -37 -36 -36 -36 -36 -36 -36 -34 -32 -30 -30 -30 -29 -25 -25 -26 -29 -29 -29 -29 -29 -28 -28 -21 -16
-1 -3 -4 -4 -5 -8 -14 -23 -34 -37 -37 -37 -37 -36 -36 -36 -35 -34 -33 -32 -31 -30 -28 -27 -27 -26 -23 -21 -24 -28 -27 -27 -27 -27 -27 -26 -23 -17
-4 -5 -6 -6 -7 -14 -33 -39 -38 -37 -36 -35 -35 -35 -34 -34 -34 -33 -31 -30 -28 -27 -27 -26 -26 -25 -24 -25 -24 -27 -28 -27 -25 -24 -22 -22 -21 -19
-4 -5 -6 -13 -34 -38 -38 -37 -36 -35 -35 -35 -34 -34 -33 -33 -31 -30 -29 -29 -29 -28 -27 -26 -26 -26 -25 -25 -25 -27 -25 -24 -22 -21 -20 -20 -19 -19
-7 -16 -30 -30 -33 -37 -35 -34 -34 -34 -34 -33 -33 -32 -30 -29 -28 -27 -27 -27 -28 -30 -28 -27 -26 -26 -26 -25 -25 -24 -21 -21 -20 -19 -19 -19 -19 -19
-11 -18 -28 -35 -35 -34 -34 -34 -34 -33 -32 -32 -31 -29 -27 -26 -26 -25 -24 -24 -24 -24 -26 -28 -27 -26 -25 -23 -22 -21 -19 -19 -19 -20 -20 -19 -19 -19
-29 -34 -35 -34 -34 -33 -33 -33 -32 -32 -31 -29 -28 -27 -26 -25 -24 -23 -23 -22 -23 -23 -24 -24 -25 -26 -23 -20 -20 -18 -18 -18 -18 -18 -20 -20 -18 -18
-35 -35 -34 -34 -33 -32 -32 -32 -31 -30 -29 -27 -27 -26 -24 -23 -23 -22 -22 -22 -22 -22 -22 -23 -24 -23 -20 -18 -18 -16 -17 -17 -17 -17 -17 -17 -16 -17
-34 -34 -33 -32 -32 -32 -31 -30 -29 -28 -27 -26 -25 -24 -23 -23 -22 -22 -21 -21 -21 -21 -23 -24 -24 -21 -18 -18 -17 -14 -14 -16 -16 -15 -14 -14 -14 -13
-33 -32 -32 -31 -31 -30 -29 -28 -27 -26 -25 -25 -24 -23 -23 -23 -22 -21 -20 -20 -20 -21 -22 -24 -23 -18 -17 -16 -16 -14 -13 -12 -13 -13 -13 -13 -13 -13
-32 -32 -31 -30 -30 -29 -28 -27 -26 -25 -24 -24 -23 -23 -23 -23 -22 -20 -20 -20 -20 -21 -22 -24 -20 -17 -17 -15 -14 -13 -12 -13 -12 -12 -12 -12 -12 -13
-31 -30 -29 -29 -29 -28 -27 -26 -25 -25 -25 -24 -23 -23 -23 -22 -21 -20 -19 -19 -20 -21 -22 -24 -18 -17 -16 -15 -15 -13 -12 -12 -12 -11 -11 -11 -11 -11

GFSNE_850_dewp_117.txt.gz
Dewpoint
-4 1 6 6 6 5 4 5 5 5 5 4 4 5 6 6 6 7 7 6 8 8 7 7 7 7 7 7 7 7 7 6 6 6 6 6 6 5
-5 -3 5 6 6 6 6 6 5 5 6 5 5 6 5 7 7 7 7 7 8 8 7 8 7 6 6 6 7 6 5 5 5 5 5 4 4 3
-2 -1 4 8 7 7 7 7 6 6 6 5 7 6 7 7 7 7 7 7 7 7 7 7 6 6 5 4 4 4 3 2 2 -0 -2 -3 -3 -3
3 3 4 5 5 6 8 7 7 6 7 7 7 7 7 7 7 6 6 5 5 5 4 4 2 2 1 -1 -1 -4 -6 -9 -13 -18 -29 -31 -34 -36
9 5 5 6 6 7 8 7 7 7 7 7 7 7 6 6 5 4 3 3 2 3 1 0 -0 -4 -6 -15 -26 -35 -40 -40 -40 -40 -40 -41 -40 -40
8 8 6 6 7 8 7 7 7 7 7 7 7 7 6 5 3 2 2 1 -1 -3 -8 -14 -20 -34 -39 -40 -40 -40 -40 -40 -40 -40 -39 -38 -38 -37
8 8 8 8 8 8 7 7 7 7 7 7 6 5 3 2 1 0 -1 -4 -11 -17 -30 -38 -40 -40 -40 -40 -40 -40 -40 -40 -39 -37 -36 -37 -36 -36
9 8 7 8 7 7 7 7 7 7 6 5 4 2 0 -1 -4 -6 -16 -35 -37 -37 -40 -40 -39 -39 -40 -40 -40 -40 -38 -37 -35 -34 -34 -34 -34 -34
8 8 7 7 7 7 7 7 6 5 3 2 1 -1 -3 -12 -32 -39 -39 -39 -39 -38 -39 -39 -38 -38 -39 -39 -39 -38 -36 -34 -33 -34 -34 -34 -33 -32
7 7 7 7 5 5 5 4 3 1 -0 -2 -8 -14 -17 -26 -34 -39 -38 -38 -36 -30 -37 -35 -29 -30 -37 -37 -38 -36 -34 -33 -33 -34 -33 -32 -32 -31
6 5 4 3 2 1 2 1 -1 -2 -7 -12 -18 -32 -35 -31 -32 -36 -38 -38 -38 -31 -31 -34 -29 -26 -30 -30 -32 -31 -32 -32 -31 -30 -29 -28 -26 -26
4 2 0 1 -2 -2 -2 -4 -6 -11 -31 -27 -12 -13 -22 -38 -38 -38 -38 -37 -35 -29 -29 -32 -31 -25 -19 -19 -24 -29 -26 -21 -21 -22 -22 -21 -18 -16
2 -1 -3 -3 -3 -5 -9 -20 -19 -14 -7 -14 -35 -37 -37 -37 -37 -36 -35 -34 -33 -31 -29 -29 -29 -23 -19 -19 -24 -26 -20 -19 -19 -19 -17 -16 -17 -17
-2 -4 -5 -6 -6 -9 -11 -9 -8 -13 -34 -36 -36 -36 -36 -35 -33 -31 -30 -29 -29 -29 -30 -28 -26 -23 -20 -19 -20 -21 -19 -18 -17 -17 -16 -17 -17 -17
-4 -5 -6 -7 -11 -10 -9 -14 -34 -36 -36 -36 -36 -35 -33 -31 -30 -29 -28 -28 -27 -26 -27 -27 -27 -28 -27 -24 -20 -18 -17 -18 -17 -16 -16 -17 -17 -17
-4 -5 -6 -9 -8 -12 -33 -35 -35 -35 -35 -35 -34 -32 -30 -28 -27 -27 -27 -27 -26 -26 -26 -27 -28 -28 -24 -19 -18 -16 -16 -16 -16 -16 -15 -15 -15 -16
-5 -7 -8 -11 -33 -35 -35 -35 -34 -34 -34 -32 -31 -29 -28 -27 -26 -25 -25 -24 -23 -25 -29 -30 -28 -23 -19 -17 -15 -15 -15 -16 -15 -15 -14 -14 -15 -14
-8 -15 -32 -35 -35 -34 -34 -34 -32 -32 -31 -30 -29 -28 -27 -26 -25 -24 -23 -22 -23 -24 -27 -28 -24 -20 -18 -16 -14 -14 -14 -14 -14 -13 -15 -15 -14 -12
-36 -35 -35 -34 -34 -33 -33 -32 -32 -31 -30 -29 -28 -27 -26 -25 -24 -23 -22 -22 -22 -24 -26 -26 -20 -18 -17 -16 -15 -13 -13 -13 -14 -13 -13 -12 -12 -11
-34 -34 -34 -33 -33 -32 -32 -31 -31 -30 -28 -28 -27 -26 -26 -25 -24 -22 -21 -21 -22 -24 -26 -24 -18 -17 -17 -16 -15 -13 -12 -12 -12 -13 -12 -12 -12 -11
-34 -33 -33 -32 -32 -32 -31 -30 -29 -28 -27 -27 -26 -26 -25 -24 -23 -21 -20 -20 -22 -23 -26 -23 -18 -17 -16 -15 -15 -14 -13 -11 -11 -12 -12 -11 -11 -11
-33 -32 -31 -31 -31 -30 -29 -29 -28 -27 -27 -26 -25 -24 -24 -23 -22 -21 -20 -20 -21 -22 -25 -22 -17 -16 -15 -15 -15 -14 -14 -15 -14 -13 -12 -11 -11 -11
-32 -31 -30 -30 -30 -29 -29 -28 -28 -27 -26 -25 -24 -24 -23 -22 -21 -21 -20 -19 -20 -22 -25 -22 -17 -16 -15 -15 -15 -13 -13 -14 -13 -14 -11 -11 -11 -11

GFSNE_850_dewp_120.txt.gz
Dewpoint
6 7 7 7 8 7 4 3 2 5 6 5 5 5 5 6 6 6 7 6 6 6 7 7 8 8 7 8 7 6 6 7 6 6 6 6 5 5
4 7 8 8 5 6 6 4 3 3 4 5 5 6 6 7 6 6 7 7 7 7 7 7 7 7 7 7 6 5 5 5 5 5 4 3 1 -1
-1 3 6 2 4 6 6 5 5 5 7 6 7 7 7 7 7 7 7 7 7 7 6 6 6 4 4 4 3 2 1 -1 -4 -8 -17 -24 -27 -35
6 -2 1 -2 3 6 6 6 5 5 6 6 7 7 7 6 7 6 6 5 5 4 3 2 2 2 0 -2 -3 -9 -23 -37 -40 -40 -41 -41 -41 -41
9 6 -1 -4 2 5 3 6 4 4 6 7 7 7 7 6 5 5 3 2 2 1 1 -0 -3 -8 -12 -20 -33 -40 -40 -41 -41 -41 -41 -41 -41 -41
7 9 4 1 3 5 6 4 4 5 7 7 7 7 6 5 4 2 2 1 0 -2 -4 -8 -11 -19 -33 -40 -41 -41 -41 -41 -41 -41 -40 -40 -39 -39
8 8 7 4 8 7 5 5 6 7 7 7 7 6 5 3 2 1 -0 -3 -8 -15 -29 -38 -38 -38 -35 -39 -40 -40 -40 -39 -40 -39 -39 -38 -37 -36
8 7 7 8 8 7 7 7 7 7 7 7 6 5 3 1 -0 -2 -7 -19 -32 -28 -38 -29 -34 -29 -35 -40 -40 -39 -38 -38 -37 -38 -37 -36 -35 -34
8 8 8 7 7 7 7 7 7 7 6 5 4 2 0 -4 -13 -19 -22 -28 -30 -22 -29 -35 -32 -32 -39 -40 -38 -38 -38 -38 -35 -30 -28 -27 -26 -26
7 7 8 7 7 7 7 7 6 4 3 2 -0 -5 -13 -18 -28 -19 -17 -26 -27 -24 -38 -39 -35 -36 -39 -38 -38 -36 -32 -29 -26 -24 -23 -22 -21 -21
6 7 7 7 6 6 6 5 3 1 -4 -7 -10 -17 -11 -8 -15 -28 -40 -39 -36 -22 -34 -37 -22 -24 -29 -35 -29 -26 -25 -24 -23 -22 -20 -21 -23 -22
5 5 4 4 3 1 2 1 0 -4 -11 -17 -7 -8 -20 -32 -38 -40 -39 -39 -36 -17 -29 -35 -27 -20 -17 -29 -20 -20 -18 -17 -16 -15 -16 -15 -15 -14
5 3 1 0 -1 -3 -3 -6 -8 -14 -6 -9 -16 -29 -38 -38 -38 -37 -36 -35 -33 -24 -31 -33 -32 -23 -22 -18 -18 -16 -16 -15 -14 -14 -14 -14 -16 -14
3 -1 -3 -4 -7 -15 -14 -7 -5 -8 -15 -24 -37 -37 -37 -36 -34 -32 -30 -30 -31 -31 -32 -32 -30 -24 -19 -15 -15 -16 -14 -14 -14 -14 -13 -13 -14 -14
-1 -4 -6 -7 -7 -6 -6 -8 -11 -19 -33 -37 -37 -36 -34 -33 -31 -30 -29 -29 -29 -31 -32 -32 -30 -24 -18 -15 -14 -14 -14 -14 -14 -12 -12 -13 -13 -12
-4 -4 -5 -5 -6 -7 -11 -21 -35 -36 -37 -36 -35 -33 -31 -30 -29 -29 -28 -28 -23 -19 -28 -30 -25 -20 -17 -15 -14 -13 -13 -13 -12 -12 -13 -12 -11 -11
-4 -5 -7 -7 -9 -22 -35 -35 -35 -35 -35 -34 -32 -31 -30 -29 -28 -27 -27 -27 -24 -20 -19 -20 -20 -18 -16 -15 -14 -13 -13 -12 -12 -13 -13 -11 -11 -10
-6 -7 -9 -22 -31 -34 -35 -34 -34 -34 -33 -32 -31 -30 -29 -28 -26 -25 -24 -24 -20 -24 -23 -23 -19 -16 -14 -13 -14 -14 -14 -14 -14 -12 -12 -11 -10 -10
-7 -20 -34 -34 -34 -34 -34 -33 -33 -32 -31 -30 -30 -30 -29 -27 -25 -23 -22 -23 -23 -22 -20 -19 -16 -16 -15 -13 -15 -14 -14 -13 -14 -13 -12 -11 -10 -10
-34 -35 -34 -34 -33 -33 -32 -32 -31 -31 -30 -30 -29 -28 -28 -27 -25 -23 -21 -22 -24 -20 -18 -18 -17 -17 -16 -15 -16 -16 -13 -13 -13 -12 -12 -11 -10 -10
-33 -33 -32 -33 -33 -32 -32 -31 -31 -30 -29 -29 -28 -28 -27 -26 -25 -23 -22 -22 -21 -17 -17 -18 -17 -16 -15 -15 -14 -14 -16 -13 -12 -12 -11 -11 -11 -10
-32 -32 -32 -32 -32 -31 -31 -30 -29 -29 -28 -28 -27 -27 -26 -25 -24 -23 -22 -19 -17 -19 -20 -20 -17 -16 -15 -15 -14 -14 -13 -15 -12 -12 -10 -11 -11 -11
-32 -32 -32 -31 -31 -30 -29 -29 -28 -28 -28 -27 -27 -26 -25 -24 -23 -22 -20 -19 -18 -19 -18 -20 -16 -16 -15 -15 -15 -14 -13 -12 -11 -11 -11 -10 -11 -10